Location: *
(31.2983°S, 151.4094°E)
Time: 10:55:37
(UTC+00:00)

Cosmos 2278 Rocket - Pass Details

Date: 25 August 2019
Orbit: 839 x 847 km, 71.0° (Epoch: 20 October)

Event Time Altitude Azimuth Distance (km) Brightness Sun altitude
Exits shadow 18:39:11 15° 335° (NNW) 2,090 4.0 -22.0°
Drops below altitude 10° 18:40:20 10° 343° (NNW) 2,450 4.4 -21.7°
Sets 18:43:01 0° 353° (N) 3,376 5.3 -21.1°
